NOAA 16 DEB

Satellite information

Favourite Embed

Satellite Type and Status

DEBRISIN ORBIT

Key statistics

Satellite NOAA 16 DEB at a glance.

Uptime

9118

Days in orbit

Revolutions

≈ 14.1

Per day

Orbit

SSO

Sun Synchronous Orbit

Inclination

98.8

Latest

Satellite identification and parameters

Extended collection of information and parameters for NOAA 16 DEB.

Object identification

Identified? True

Debris? True

Object name: NOAA 16 DEB

International designator: 2000-055CZ

Object number (NORAD): 41196

Object ID (CCSDS): 41196

Country: UNITED STATES OF AMERICA (US)

Current information (Y/N): Y

RCS size: SMALL

Orbital parameters

Period: 101.948 minutes

Inclination: 98.7584 deg

SMA: 7229.011 km

Apoapsis: 889.832 km

Periapsis: 811.92 km

RAAN: 272.4776 deg

Eccentricy: 0.00538886

Argument of periapsis: 27.9752 deg

Mean anomaly: 332.4298 deg

Mean motion: 14.12486965 rev/day

Mean motion (dot): 0.00004349 rev/day2

B* drag term: 0.0023441889 1/REarth

Two-line elements (TLE)

Creation date: Sept. 7, 2025, 9:49 a.m.

Reference frame: TEME

Reference center: EARTH

Epoch: Sept. 7, 2025, 12:38 a.m. UTC

TLE line 0: 0 NOAA 16 DEB

TLE line 1: 1 41196U 00055CZ 25250.02677131 .00004349 00000-0 23442-2 0 9999

TLE line 2: 2 41196 98.7584 272.4776 0053889 27.9752 332.4298 14.12486965498147

Live tracking on map

Real-time ground track for satellite NOAA 16 DEB.

In-orbit conjunctions

A list of the most updated potential collisions computed for object NOAA 16 DEB.

Target Orbit TCA Probability of collision Miss distance Type
NOAA 16 DEB SSO 2024-09-26 02:50:44 0.0004540544 726.0 (m) DEBRIS
METEOR 1-10 LEO 2024-06-16 07:05:53 0.0001231313 119.0 (m) PAYLOAD

Associated space launch

The NOAA K, L and M POES satellites begin the fifth generation of improved environmental monitoring in support of NOAA missions. The instrument payload has significant improvements and additions/deletions. The instrument changes have effected the spacecraft subsystems and data formats.

NOAA 16 DEB was lifted into orbit during the mission ‘Titan II SLV | NOAA 16’, on board a Titan II SLV space rocket.

The launch took place on Sept. 21, 2000, 10:22 a.m. from Space Launch Complex 4W.

For more information about the launch, click the button.

Launch to space Titan II SLV | NOAA 16
Titan II SLV | NOAA 16

Agency: N/A

Status: Launch Successful

Launch date: Sept. 21, 2000, 10:22 a.m. UTC

Rocket: Titan II SLV

Launch pad: Space Launch Complex 4W

Location: Vandenberg SFB, CA, USA

...

Latest news about this satellite

There are no fresh news available about this satellite. Check back as we update our databases every day.


Newsletter sign-up

Weekly statistics, charts and insights to help you stay on top of the space industry.